Weather History for Caslav, Czech Republic

Change the Weather History Date:

Tuesday, April 9, 2013

  Actual Average (LKPR) Record (LKPR)
Temperature  
Mean Temperature 42 °F -  
Max Temperature 51 °F 50 °F 68 °F (2009)
Min Temperature 32 °F 34 °F 19 °F (2003)
Degree Days  
Heating Degree Days 24    
Moisture  
Dew Point 34 °F    
Average Humidity 74    
Maximum Humidity 93    
Minimum Humidity 58    
Precipitation  
Precipitation 0.00 in - - ()
Sea Level Pressure  
Sea Level Pressure 29.69 in    
Wind  
Wind Speed 4 mph ()    
Max Wind Speed 9 mph    
Max Gust Speed -    
Visibility 5.8 miles    
Events Rain    
Averages and records for this station are not official NWS values.
T = Trace of Precipitation, MM = Missing Value Source: Averaged Metar Reports

Daily Weather History Graph

Daily Weather History Graph

Search for Another Location

Airport:

Trip Planner

Search our weather history database for the weather conditions in past years. The results will help you decide how hot, cold, wet, or windy it might be!

Date:

Astronomy

Apr. 09, 2013 Rise Set
Actual Time 6:18 AM CEST 7:42 PM CEST
Civil Twilight 5:44 AM CEST 8:16 PM CEST
Nautical Twilight 5:04 AM CEST 8:57 PM CEST
Astronomical Twilight 4:20 AM CEST 9:41 PM CEST
Moon 5:35 AM CEST (4/9) 6:59 PM CEST (4/9)
Length of Visible Light 14h 31m
Length of Day
13h 24m
Waning Crescent, 1% of the Moon is Illuminated
Apr 9
Waning Crescent
Apr 10
New
Apr 18
First Quarter
Apr 25
Full
May 2
Last Quarter

Hourly Weather History & Observations

Time (CEST) Temp. Windchill Dew Point Humidity Pressure Visibility Wind Dir Wind Speed Gust Speed Precip Events Conditions
12:00 AM 39.2 °F 33.6 °F 28.4 °F 65% 29.71 in - East 8.1 mph - N/A   Clear
1:00 AM 37.4 °F 31.4 °F 28.4 °F 70% 29.71 in - ENE 8.1 mph - N/A   Clear
2:00 AM 37.4 °F 31.4 °F 28.4 °F 70% 29.71 in - ENE 8.1 mph - N/A   Clear
3:00 AM 35.6 °F 32.8 °F 28.4 °F 75% 29.71 in - East 3.5 mph - N/A   Clear
4:00 AM 33.8 °F - 28.4 °F 81% 29.68 in - ESE 1.2 mph - N/A   Clear
5:00 AM 33.8 °F - 30.2 °F 87% 29.68 in - South 1.2 mph - N/A   Clear
6:00 AM 32.0 °F - 30.2 °F 93% 29.68 in - Calm Calm - N/A   Clear
7:00 AM 33.8 °F - 30.2 °F 87% 29.68 in - SE 1.2 mph - N/A   Clear
8:00 AM 35.6 °F - 32.0 °F 87% 29.71 in 5.0 mi Calm Calm - N/A Rain Light Rain Showers
9:00 AM 39.2 °F - 35.6 °F 87% 29.71 in 5.0 mi Variable 2.3 mph - N/A Rain Light Rain
10:00 AM 41.0 °F 39.0 °F 35.6 °F 81% 29.71 in 5.0 mi SSE 3.5 mph - N/A   Unknown
11:00 AM 44.6 °F 43.1 °F 35.6 °F 71% 29.71 in - SSW 3.5 mph - N/A   Clear
12:00 PM 46.4 °F 44.3 °F 35.6 °F 66% 29.71 in 6.2 mi South 4.6 mph - N/A   Mostly Cloudy
1:00 PM 46.4 °F 44.3 °F 35.6 °F 66% 29.71 in 6.2 mi Variable 4.6 mph - N/A   Mostly Cloudy
2:00 PM 48.2 °F - 35.6 °F 62% 29.71 in 6.2 mi Variable 3.5 mph - N/A   Mostly Cloudy
3:00 PM 50.0 °F - 37.4 °F 62% 29.68 in 6.2 mi West 3.5 mph - N/A   Mostly Cloudy
4:00 PM 48.2 °F - 35.6 °F 62% 29.68 in 6.2 mi ENE 5.8 mph - N/A   Mostly Cloudy
5:00 PM 50.0 °F - 37.4 °F 62% 29.65 in - ENE 6.9 mph - N/A   Clear
6:00 PM 51.8 °F - 37.4 °F 58% 29.65 in 6.2 mi ENE 9.2 mph - N/A   Scattered Clouds
7:00 PM 48.2 °F - 37.4 °F 66% 29.65 in - ENE 6.9 mph - N/A   Clear
8:00 PM 46.4 °F 43.5 °F 37.4 °F 71% 29.65 in - East 5.8 mph - N/A   Clear
9:00 PM 44.6 °F 41.4 °F 39.2 °F 81% 29.68 in - East 5.8 mph - N/A   Clear
10:00 PM 44.6 °F 41.4 °F 37.4 °F 76% 29.68 in - SE 5.8 mph - N/A   Clear
11:00 PM 42.8 °F - 39.2 °F 87% 29.65 in - Variable 2.3 mph - N/A   Clear